Location: Invercargill
(46.4000°S, 168.3500°E)
Time: 20:56:05
(UTC+12:00)

Transit 2A - Visible Passes

Search period start: 24 July 2019 00:00
Search period end: 03 August 2019 00:00
Orbit: 595 x 964 km, 66.7° (Epoch: 24 July)

Date Brightness Start Highest point End Pass type
(mag) Time Alt. Az. Time Alt. Az. Time Alt. Az.
24 Jul 6.4 05:30:02 51° ESE 05:30:02 51° ESE 05:33:50 10° SE visible
24 Jul 7.0 07:10:35 16° WSW 07:12:48 22° SW 07:16:36 10° SSE visible
25 Jul 7.7 04:57:24 24° ESE 04:57:24 24° ESE 04:59:34 10° SE visible
25 Jul 6.5 06:37:55 28° SW 06:38:26 29° SW 06:42:41 10° SSE visible
26 Jul 8.6 04:24:36 13° ESE 04:24:36 13° ESE 04:25:09 10° SE visible
26 Jul 6.5 06:05:07 35° SSW 06:05:07 35° SSW 06:08:43 10° SSE visible
27 Jul 7.2 05:32:13 28° SSE 05:32:13 28° SSE 05:34:42 10° SSE visible
27 Jul 7.6 07:12:44 12° SW 07:14:18 14° SSW 07:16:47 10° S visible
28 Jul 8.0 04:59:15 19° SSE 04:59:15 19° SSE 05:00:36 10° SSE visible
28 Jul 7.4 06:39:45 17° SW 06:39:50 17° SSW 06:43:02 10° S visible
29 Jul 8.7 04:26:13 11° SE 04:26:13 11° SE 04:26:27 10° SE visible
29 Jul 7.4 06:06:42 19° SSW 06:06:42 19° SSW 06:09:11 10° SSE visible
30 Jul 7.8 05:33:37 18° S 05:33:37 18° S 05:35:16 10° SSE visible
31 Jul 8.2 05:00:28 14° SSE 05:00:28 14° SSE 05:01:19 10° SSE visible
31 Jul 7.9 06:40:58 11° SSW 06:41:31 11° SSW 06:42:50 10° S visible
01 Aug 7.9 06:07:47 13° SSW 06:07:47 13° SSW 06:09:21 10° S visible
02 Aug 8.1 05:34:35 13° S 05:34:35 13° S 05:35:37 10° S visible
